| time (UTC) | temp F | wind direction | speed MPH | gust MPH | rain 1hr in | rain 24hr in | rain mn in | humidity % | barometer mb |
| 20260507010341 | 85 | 270 | 1.0 | 5.0 | 0.00 | 0.00 | 0.00 | 19 | 1010.5 |
| 20260507005613 | 85 | 248 | 0.0 | 3.0 | 0.00 | 0.00 | 0.00 | 19 | 1010.0 |
| 20260507005109 | 85 | 270 | 0.0 | 3.0 | 0.00 | 0.00 | 0.00 | 19 | 1010.5 |
| 20260507004610 | 85 | 270 | 0.0 | 4.0 | 0.00 | 0.00 | 0.00 | 19 | 1010.0 |
| 20260507004109 | 86 | 203 | 1.0 | 4.0 | 0.00 | 0.00 | 0.00 | 17 | 1010.0 |
| 20260507003610 | 86 | 248 | 0.0 | 6.0 | 0.00 | 0.00 | 0.00 | 17 | 1010.0 |
| 20260507003111 | 86 | 270 | 1.0 | 6.0 | 0.00 | 0.00 | 0.00 | 17 | 1010.5 |
| 20260507002612 | 87 | 248 | 1.0 | 6.0 | 0.00 | 0.00 | 0.00 | 17 | 1010.0 |
| 20260507002111 | 87 | 158 | 1.0 | 4.0 | 0.00 | 0.00 | 0.00 | 19 | 1010.0 |
| 20260507001611 | 88 | 225 | 0.0 | 5.0 | 0.00 | 0.00 | 0.00 | 17 | 1010.5 |
| 20260507001111 | 88 | 293 | 1.0 | 5.0 | 0.00 | 0.00 | 0.00 | 19 | 1010.0 |
| 20260507000609 | 88 | 90 | 1.0 | 5.0 | 0.00 | 0.00 | 0.00 | 17 | 1010.0 |
| 20260507000109 | 88 | 248 | 1.0 | 5.0 | 0.00 | 0.00 | 0.00 | 17 | 1010.0 |
| 20260506235609 | 88 | 0 | 0.0 | 4.0 | 0.00 | 0.00 | 0.00 | 19 | 1010.0 |
| 20260506235111 | 88 | 203 | 0.0 | 6.0 | 0.00 | 0.00 | 0.00 | 17 | 1010.0 |
| 20260506234610 | 88 | 45 | 1.0 | 6.0 | 0.00 | 0.00 | 0.00 | 19 | 1010.0 |
| 20260506234110 | 87 | 270 | 1.0 | 4.0 | 0.00 | 0.00 | 0.00 | 19 | 1010.0 |
| 20260506233611 | 87 | 270 | 0.0 | 4.0 | 0.00 | 0.00 | 0.00 | 19 | 1010.5 |
| 20260506233110 | 87 | 135 | 1.0 | 6.0 | 0.00 | 0.00 | 0.00 | 19 | 1010.5 |
| 20260506232602 | 87 | 90 | 1.0 | 6.0 | 0.00 | 0.00 | 0.00 | 20 | 1010.5 |
| 20260506232050 | 87 | 203 | 1.0 | 6.0 | 0.00 | 0.00 | 0.00 | 20 | 1010.5 |
| 20260506231551 | 87 | 45 | 1.0 | 7.0 | 0.00 | 0.00 | 0.00 | 19 | 1010.8 |
| 20260506231050 | 87 | 338 | 1.0 | 7.0 | 0.00 | 0.00 | 0.00 | 19 | 1010.5 |
| 20260506230552 | 87 | 270 | 1.0 | 5.0 | 0.00 | 0.00 | 0.00 | 19 | 1010.5 |
| 20260506230052 | 87 | 158 | 0.0 | 5.0 | 0.00 | 0.00 | 0.00 | 20 | 1010.8 |
| 20260506225551 | 86 | 338 | 0.0 | 6.0 | 0.00 | 0.00 | 0.00 | 20 | 1010.8 |
| 20260506225052 | 86 | 23 | 0.0 | 6.0 | 0.00 | 0.00 | 0.00 | 20 | 1010.8 |
| 20260506224551 | 86 | 90 | 1.0 | 5.0 | 0.00 | 0.00 | 0.00 | 19 | 1010.8 |
| 20260506224050 | 87 | 203 | 0.0 | 4.0 | 0.00 | 0.00 | 0.00 | 19 | 1011.1 |
| 20260506223551 | 87 | 45 | 0.0 | 4.0 | 0.00 | 0.00 | 0.00 | 19 | 1011.1 |
| 20260506223051 | 87 | 203 | 1.0 | 7.0 | 0.00 | 0.00 | 0.00 | 19 | 1011.5 |
| 20260506222550 | 87 | 270 | 2.0 | 9.0 | 0.00 | 0.00 | 0.00 | 17 | 1011.1 |
| 20260506222051 | 87 | 293 | 2.0 | 9.0 | 0.00 | 0.00 | 0.00 | 19 | 1011.1 |
| 20260506221821 | 87 | 270 | 1.0 | 6.0 | 0.00 | 0.00 | 0.00 | 19 | 1011.5 |
| 20260506221051 | 87 | 180 | 1.0 | 7.0 | 0.00 | 0.00 | 0.00 | 19 | 1011.1 |
| 20260506220551 | 87 | 113 | 1.0 | 7.0 | 0.00 | 0.00 | 0.00 | 20 | 1011.5 |
| 20260506220322 | 87 | 315 | 0.0 | 5.0 | 0.00 | 0.00 | 0.00 | 20 | 1011.5 |
| 20260506215821 | 87 | 338 | 1.0 | 6.0 | 0.00 | 0.00 | 0.00 | 20 | 1011.8 |
| 20260506215050 | 87 | 180 | 1.0 | 6.0 | 0.00 | 0.00 | 0.00 | 20 | 1011.8 |
| 20260506214823 | 86 | 0 | 1.0 | 5.0 | 0.00 | 0.00 | 0.00 | 20 | 1011.8 |
| 20260506214050 | 86 | 68 | 1.0 | 7.0 | 0.00 | 0.00 | 0.00 | 19 | 1011.8 |
| 20260506213550 | 86 | 23 | 2.0 | 7.0 | 0.00 | 0.00 | 0.00 | 20 | 1012.1 |
| 20260506213052 | 86 | 270 | 1.0 | 6.0 | 0.00 | 0.00 | 0.00 | 20 | 1012.1 |
| 20260506212821 | 86 | 270 | 1.0 | 5.0 | 0.00 | 0.00 | 0.00 | 20 | 1012.1 |
| 20260506212051 | 86 | 23 | 1.0 | 5.0 | 0.00 | 0.00 | 0.00 | 19 | 1012.1 |
| 20260506211551 | 86 | 270 | 1.0 | 6.0 | 0.00 | 0.00 | 0.00 | 20 | 1012.5 |
| 20260506211051 | 86 | 248 | 1.0 | 7.0 | 0.00 | 0.00 | 0.00 | 19 | 1012.5 |
| 20260506210822 | 86 | 248 | 2.0 | 8.0 | 0.00 | 0.00 | 0.00 | 20 | 1012.5 |
| 20260506210050 | 86 | 23 | 1.0 | 8.0 | 0.00 | 0.00 | 0.00 | 19 | 1012.5 |
| 20260506205550 | 86 | 248 | 1.0 | 5.0 | 0.00 | 0.00 | 0.00 | 20 | 1012.5 |
| 20260506205051 | 86 | 0 | 1.0 | 5.0 | 0.00 | 0.00 | 0.00 | 20 | 1012.5 |
| 20260506204822 | 86 | 315 | 0.0 | 4.0 | 0.00 | 0.00 | 0.00 | 20 | 1012.8 |
| 20260506204051 | 86 | 270 | 0.0 | 5.0 | 0.00 | 0.00 | 0.00 | 20 | 1012.8 |
| 20260506203822 | 86 | 293 | 1.0 | 5.0 | 0.00 | 0.00 | 0.00 | 20 | 1012.8 |
| 20260506203051 | 86 | 23 | 1.0 | 4.0 | 0.00 | 0.00 | 0.00 | 22 | 1012.8 |
| 20260506202551 | 85 | 23 | 1.0 | 9.0 | 0.00 | 0.00 | 0.00 | 20 | 1012.8 |
| 20260506202049 | 85 | 293 | 2.0 | 9.0 | 0.00 | 0.00 | 0.00 | 20 | 1013.3 |
| 20260506201550 | 85 | 293 | 1.0 | 7.0 | 0.00 | 0.00 | 0.00 | 22 | 1013.3 |
| 20260506201320 | 84 | 315 | 2.0 | 7.0 | 0.00 | 0.00 | 0.00 | 20 | 1013.3 |
| 20260506200549 | 84 | 225 | 0.0 | 5.0 | 0.00 | 0.00 | 0.00 | 20 | 1012.8 |
| 20260506200051 | 84 | 270 | 1.0 | 4.0 | 0.00 | 0.00 | 0.00 | 20 | 1013.3 |
| 20260506195555 | 84 | 293 | 1.0 | 4.0 | 0.00 | 0.00 | 0.00 | 20 | 1013.3 |
| 20260506195551 | 84 | 270 | 0.0 | 4.0 | 0.00 | 0.00 | 0.00 | 22 | 1013.3 |
| 20260506194822 | 84 | 270 | 0.0 | 5.0 | 0.00 | 0.00 | 0.00 | 20 | 1013.3 |
| 20260506194051 | 84 | 225 | 1.0 | 5.0 | 0.00 | 0.00 | 0.00 | 22 | 1013.6 |
| 20260506193549 | 84 | 338 | 1.0 | 9.0 | 0.00 | 0.00 | 0.00 | 22 | 1013.3 |
| 20260506193321 | 83 | 270 | 1.0 | 9.0 | 0.00 | 0.00 | 0.00 | 22 | 1013.6 |
| 20260506192549 | 83 | 23 | 0.0 | 4.0 | 0.00 | 0.00 | 0.00 | 22 | 1013.9 |
| 20260506192050 | 83 | 90 | 1.0 | 4.0 | 0.00 | 0.00 | 0.00 | 22 | 1013.9 |
| 20260506191820 | 83 | 338 | 1.0 | 4.0 | 0.00 | 0.00 | 0.00 | 24 | 1013.9 |
| 20260506191051 | 82 | 338 | 0.0 | 3.0 | 0.00 | 0.00 | 0.00 | 24 | 1013.9 |
| 20260506190550 | 82 | 0 | 0.0 | 6.0 | 0.00 | 0.00 | 0.00 | 22 | 1013.9 |
| 20260506190050 | 81 | 23 | 2.0 | 7.0 | 0.00 | 0.00 | 0.00 | 24 | 1013.9 |
| 20260506185821 | 81 | 45 | 1.0 | 7.0 | 0.00 | 0.00 | 0.00 | 24 | 1013.9 |
| 20260506185320 | 81 | 315 | 1.0 | 5.0 | 0.00 | 0.00 | 0.00 | 22 | 1014.3 |
| 20260506184549 | 80 | 338 | 1.0 | 5.0 | 0.00 | 0.00 | 0.00 | 22 | 1014.3 |
| 20260506184048 | 80 | 180 | 1.0 | 5.0 | 0.00 | 0.00 | 0.00 | 25 | 1014.3 |
| 20260506183550 | 80 | 203 | 1.0 | 4.0 | 0.00 | 0.00 | 0.00 | 24 | 1014.3 |
| 20260506183050 | 80 | 90 | 0.0 | 4.0 | 0.00 | 0.00 | 0.00 | 24 | 1014.3 |
| 20260506182531 | 80 | 158 | 0.0 | 4.0 | 0.00 | 0.00 | 0.00 | 25 | 1014.6 |
| 20260506182032 | 80 | 293 | 1.0 | 5.0 | 0.00 | 0.00 | 0.00 | 25 | 1014.6 |
| 20260506181531 | 80 | 180 | 1.0 | 6.0 | 0.00 | 0.00 | 0.00 | 25 | 1014.6 |
| 20260506181031 | 80 | 0 | 1.0 | 6.0 | 0.00 | 0.00 | 0.00 | 25 | 1014.6 |
| 20260506180530 | 80 | 270 | 1.0 | 6.0 | 0.00 | 0.00 | 0.00 | 25 | 1015.0 |
| 20260506180030 | 80 | 270 | 1.0 | 6.0 | 0.00 | 0.00 | 0.00 | 25 | 1014.6 |
| 20260506175530 | 79 | 293 | 0.0 | 4.0 | 0.00 | 0.00 | 0.00 | 27 | 1014.6 |
| 20260506175031 | 79 | 270 | 0.0 | 3.0 | 0.00 | 0.00 | 0.00 | 27 | 1015.0 |
| 20260506174530 | 79 | 248 | 0.0 | 3.0 | 0.00 | 0.00 | 0.00 | 27 | 1014.6 |
| 20260506174031 | 78 | 113 | 0.0 | 5.0 | 0.00 | 0.00 | 0.00 | 27 | 1014.6 |
| 20260506173531 | 78 | 0 | 0.0 | 5.0 | 0.00 | 0.00 | 0.00 | 29 | 1015.0 |
| 20260506173031 | 77 | 68 | 1.0 | 5.0 | 0.00 | 0.00 | 0.00 | 29 | 1014.6 |
| 20260506172802 | 77 | 0 | 1.0 | 5.0 | 0.00 | 0.00 | 0.00 | 29 | 1014.6 |
| 20260506172030 | 77 | 158 | 1.0 | 5.0 | 0.00 | 0.00 | 0.00 | 27 | 1014.6 |
| 20260506171530 | 78 | 270 | 1.0 | 5.0 | 0.00 | 0.00 | 0.00 | 27 | 1014.6 |
| 20260506171030 | 78 | 315 | 0.0 | 3.0 | 0.00 | 0.00 | 0.00 | 27 | 1014.6 |
| 20260506170530 | 78 | 45 | 0.0 | 2.0 | 0.00 | 0.00 | 0.00 | 29 | 1014.6 |
| 20260506170031 | 78 | 203 | 0.0 | 3.0 | 0.00 | 0.00 | 0.00 | 29 | 1014.6 |
| 20260506165801 | 77 | 45 | 0.0 | 4.0 | 0.00 | 0.00 | 0.00 | 29 | 1015.0 |
| 20260506165305 | 77 | 135 | 0.0 | 5.0 | 0.00 | 0.00 | 0.00 | 30 | 1015.0 |
| 20260506164531 | 76 | 203 | 1.0 | 5.0 | 0.00 | 0.00 | 0.00 | 29 | 1014.6 |
| 20260506164031 | 76 | 203 | 0.0 | 2.0 | 0.00 | 0.00 | 0.00 | 30 | 1014.6 |
| 20260506163531 | 76 | 225 | 0.0 | 3.0 | 0.00 | 0.00 | 0.00 | 30 | 1015.0 |
| 20260506163029 | 75 | 113 | 0.0 | 3.0 | 0.00 | 0.00 | 0.00 | 30 | 1014.6 |
| 20260506162529 | 74 | 158 | 0.0 | 3.0 | 0.00 | 0.00 | 0.00 | 30 | 1014.6 |
| 20260506162030 | 74 | 158 | 0.0 | 4.0 | 0.00 | 0.00 | 0.00 | 30 | 1014.6 |
| 20260506161529 | 74 | 270 | 0.0 | 4.0 | 0.00 | 0.00 | 0.00 | 31 | 1015.0 |
| 20260506161031 | 73 | 90 | 0.0 | 3.0 | 0.00 | 0.00 | 0.00 | 31 | 1014.6 |
| 20260506160531 | 73 | 180 | 0.0 | 2.0 | 0.00 | 0.00 | 0.00 | 31 | 1015.0 |
| 20260506160030 | 72 | 0 | 0.0 | 4.0 | 0.00 | 0.00 | 0.00 | 32 | 1015.0 |
| 20260506155531 | 72 | 338 | 0.0 | 4.0 | 0.00 | 0.00 | 0.00 | 34 | 1014.6 |
| 20260506155031 | 71 | 338 | 0.0 | 3.0 | 0.00 | 0.00 | 0.00 | 35 | 1014.6 |
| 20260506154800 | 71 | 338 | 0.0 | 2.0 | 0.00 | 0.00 | 0.00 | 35 | 1014.6 |
| 20260506154029 | 71 | 113 | 0.0 | 2.0 | 0.00 | 0.00 | 0.00 | 35 | 1014.6 |
| 20260506153529 | 71 | 23 | 0.0 | 3.0 | 0.00 | 0.00 | 0.00 | 35 | 1014.6 |
| 20260506153301 | 70 | 180 | 1.0 | 3.0 | 0.00 | 0.00 | 0.00 | 35 | 1014.6 |
| 20260506152531 | 70 | 23 | 0.0 | 3.0 | 0.00 | 0.00 | 0.00 | 35 | 1015.0 |
| 20260506152031 | 70 | 315 | 0.0 | 3.0 | 0.00 | 0.00 | 0.00 | 37 | 1014.6 |
| 20260506151530 | 69 | 0 | 0.0 | 2.0 | 0.00 | 0.00 | 0.00 | 37 | 1014.6 |
| 20260506151030 | 69 | 68 | 0.0 | 2.0 | 0.00 | 0.00 | 0.00 | 37 | 1014.6 |
| 20260506150531 | 69 | 23 | 0.0 | 1.0 | 0.00 | 0.00 | 0.00 | 37 | 1014.6 |
| 20260506150029 | 69 | 135 | 0.0 | 1.0 | 0.00 | 0.00 | 0.00 | 37 | 1014.6 |
| 20260506145529 | 68 | 203 | 0.0 | 2.0 | 0.00 | 0.00 | 0.00 | 39 | 1014.3 |
| 20260506145029 | 68 | 158 | 0.0 | 2.0 | 0.00 | 0.00 | 0.00 | 39 | 1014.6 |
| 20260506144529 | 67 | 113 | 0.0 | 1.0 | 0.00 | 0.00 | 0.00 | 40 | 1014.6 |
| 20260506144302 | 66 | 113 | 0.0 | 1.0 | 0.00 | 0.00 | 0.00 | 40 | 1014.6 |
| 20260506143530 | 66 | 90 | 0.0 | 1.0 | 0.00 | 0.00 | 0.00 | 41 | 1014.6 |
| 20260506143031 | 65 | 90 | 0.0 | 1.0 | 0.00 | 0.00 | 0.00 | 41 | 1014.6 |
| 20260506142530 | 65 | 135 | 0.0 | 2.0 | 0.00 | 0.00 | 0.00 | 41 | 1014.3 |
| 20260506142031 | 64 | 203 | 0.0 | 2.0 | 0.00 | 0.00 | 0.00 | 43 | 1014.3 |
| 20260506141800 | 64 | 180 | 0.0 | 0.0 | 0.00 | 0.00 | 0.00 | 41 | 1014.6 |
| 20260506141024 | 63 | 248 | 0.0 | 2.0 | 0.00 | 0.00 | 0.00 | 44 | 1014.3 |
| 20260506140510 | 63 | 203 | 0.0 | 4.0 | 0.00 | 0.00 | 0.00 | 44 | 1014.3 |
| 20260506140241 | 62 | 203 | 0.0 | 4.0 | 0.00 | 0.00 | 0.00 | 45 | 1014.3 |
| 20260506135511 | 62 | 158 | 0.0 | 2.0 | 0.00 | 0.00 | 0.00 | 45 | 1014.3 |
| 20260506135012 | 61 | 293 | 0.0 | 2.0 | 0.00 | 0.00 | 0.00 | 45 | 1013.9 |
| 20260506134512 | 61 | 225 | 0.0 | 0.0 | 0.00 | 0.00 | 0.00 | 45 | 1013.9 |
| 20260506134012 | 60 | 270 | 0.0 | 0.0 | 0.00 | 0.00 | 0.00 | 46 | 1013.9 |
| 20260506133512 | 60 | 135 | 0.0 | 0.0 | 0.00 | 0.00 | 0.00 | 46 | 1013.9 |
| 20260506133241 | 60 | 68 | 0.0 | 0.0 | 0.00 | 0.00 | 0.00 | 48 | 1013.9 |
| 20260506132510 | 60 | 45 | 0.0 | 0.0 | 0.00 | 0.00 | 0.00 | 48 | 1013.9 |
| 20260506132010 | 60 | 338 | 0.0 | 0.0 | 0.00 | 0.00 | 0.00 | 48 | 1013.9 |
| 20260506131510 | 60 | 113 | 0.0 | 0.0 | 0.00 | 0.00 | 0.00 | 49 | 1013.9 |
| 20260506131010 | 60 | 68 | 0.0 | 0.0 | 0.00 | 0.00 | 0.00 | 49 | 1013.9 |
| 20260506130511 | 59 | 45 | 0.0 | 0.0 | 0.00 | 0.00 | 0.00 | 48 | 1013.9 |
| 20260506130011 | 59 | 45 | 0.0 | 0.0 | 0.00 | 0.00 | 0.00 | 46 | 1013.6 |
| 20260506125513 | 59 | 158 | 0.0 | 0.0 | 0.00 | 0.00 | 0.00 | 46 | 1013.6 |
| 20260506125012 | 59 | 113 | 0.0 | 0.0 | 0.00 | 0.00 | 0.00 | 46 | 1013.6 |
| 20260506124511 | 59 | 158 | 0.0 | 0.0 | 0.00 | 0.00 | 0.00 | 46 | 1013.6 |
| 20260506124011 | 60 | 113 | 0.0 | 0.0 | 0.00 | 0.00 | 0.00 | 46 | 1013.6 |
| 20260506123510 | 60 | 248 | 0.0 | 0.0 | 0.00 | 0.00 | 0.00 | 46 | 1013.3 |
| 20260506123011 | 60 | 270 | 0.0 | 0.0 | 0.00 | 0.00 | 0.00 | 46 | 1013.3 |
| 20260506122511 | 60 | 113 | 0.0 | 0.0 | 0.00 | 0.00 | 0.00 | 45 | 1013.3 |
| 20260506122011 | 60 | 68 | 0.0 | 0.0 | 0.00 | 0.00 | 0.00 | 46 | 1013.3 |
| 20260506121512 | 60 | 158 | 0.0 | 0.0 | 0.00 | 0.00 | 0.00 | 46 | 1013.3 |
| 20260506121243 | 60 | 203 | 0.0 | 0.0 | 0.00 | 0.00 | 0.00 | 46 | 1013.3 |
| 20260506120511 | 60 | 90 | 0.0 | 0.0 | 0.00 | 0.00 | 0.00 | 48 | 1012.8 |
| 20260506120011 | 60 | 90 | 0.0 | 0.0 | 0.00 | 0.00 | 0.00 | 46 | 1012.8 |
| 20260506115510 | 60 | 90 | 0.0 | 0.0 | 0.00 | 0.00 | 0.00 | 45 | 1012.8 |
| 20260506115242 | 60 | 90 | 0.0 | 0.0 | 0.00 | 0.00 | 0.00 | 45 | 1012.8 |
| 20260506114741 | 60 | 248 | 0.0 | 0.0 | 0.00 | 0.00 | 0.00 | 46 | 1012.8 |
| 20260506114010 | 60 | 248 | 0.0 | 0.0 | 0.00 | 0.00 | 0.00 | 45 | 1012.8 |
| 20260506113511 | 61 | 248 | 0.0 | 1.0 | 0.00 | 0.00 | 0.00 | 45 | 1012.8 |
| 20260506113011 | 61 | 225 | 0.0 | 1.0 | 0.00 | 0.00 | 0.00 | 45 | 1012.8 |
| 20260506112511 | 61 | 293 | 0.0 | 1.0 | 0.00 | 0.00 | 0.00 | 45 | 1012.8 |
| 20260506112243 | 61 | 225 | 0.0 | 0.0 | 0.00 | 0.00 | 0.00 | 45 | 1012.8 |
| 20260506111512 | 61 | 225 | 0.0 | 0.0 | 0.00 | 0.00 | 0.00 | 44 | 1012.8 |
| 20260506111010 | 61 | 113 | 0.0 | 0.0 | 0.00 | 0.00 | 0.00 | 45 | 1012.8 |
| 20260506110510 | 61 | 270 | 0.0 | 0.0 | 0.00 | 0.00 | 0.00 | 45 | 1012.8 |
| 20260506110242 | 62 | 270 | 0.0 | 0.0 | 0.00 | 0.00 | 0.00 | 44 | 1012.8 |
| 20260506105510 | 62 | 270 | 0.0 | 0.0 | 0.00 | 0.00 | 0.00 | 44 | 1012.8 |
| 20260506105010 | 62 | 270 | 0.0 | 0.0 | 0.00 | 0.00 | 0.00 | 44 | 1012.8 |
| 20260506104742 | 62 | 270 | 0.0 | 0.0 | 0.00 | 0.00 | 0.00 | 44 | 1012.5 |
| 20260506104012 | 62 | 180 | 0.0 | 0.0 | 0.00 | 0.00 | 0.00 | 44 | 1012.8 |
| 20260506103958 | 62 | 203 | 0.0 | 2.0 | 0.00 | 0.00 | 0.00 | 44 | 1012.5 |
| 20260506102953 | 62 | 180 | 0.0 | 2.0 | 0.00 | 0.00 | 0.00 | 43 | 1012.5 |
| 20260506102453 | 62 | 180 | 0.0 | 0.0 | 0.00 | 0.00 | 0.00 | 44 | 1012.5 |
| 20260506102223 | 62 | 293 | 0.0 | 0.0 | 0.00 | 0.00 | 0.00 | 45 | 1012.5 |
| 20260506101451 | 62 | 315 | 0.0 | 0.0 | 0.00 | 0.00 | 0.00 | 43 | 1012.5 |
| 20260506100951 | 62 | 45 | 0.0 | 0.0 | 0.00 | 0.00 | 0.00 | 43 | 1012.5 |
| 20260506100451 | 62 | 270 | 0.0 | 0.0 | 0.00 | 0.00 | 0.00 | 43 | 1012.5 |
| 20260506095953 | 62 | 315 | 0.0 | 0.0 | 0.00 | 0.00 | 0.00 | 43 | 1012.1 |
| 20260506095453 | 62 | 270 | 0.0 | 0.0 | 0.00 | 0.00 | 0.00 | 43 | 1012.1 |
| 20260506094952 | 62 | 113 | 0.0 | 0.0 | 0.00 | 0.00 | 0.00 | 43 | 1012.5 |
| 20260506094452 | 62 | 248 | 0.0 | 0.0 | 0.00 | 0.00 | 0.00 | 43 | 1012.1 |
| 20260506093952 | 62 | 158 | 0.0 | 0.0 | 0.00 | 0.00 | 0.00 | 43 | 1012.1 |
| 20260506093451 | 62 | 0 | 0.0 | 0.0 | 0.00 | 0.00 | 0.00 | 44 | 1012.1 |
| 20260506092951 | 63 | 0 | 0.0 | 0.0 | 0.00 | 0.00 | 0.00 | 43 | 1012.1 |
| 20260506092452 | 63 | 0 | 0.0 | 0.0 | 0.00 | 0.00 | 0.00 | 44 | 1012.1 |
| 20260506091952 | 63 | 0 | 0.0 | 0.0 | 0.00 | 0.00 | 0.00 | 43 | 1012.1 |
| 20260506091452 | 63 | 0 | 0.0 | 0.0 | 0.00 | 0.00 | 0.00 | 43 | 1012.1 |
| 20260506091223 | 63 | 0 | 0.0 | 0.0 | 0.00 | 0.00 | 0.00 | 40 | 1012.1 |
| 20260506090459 | 63 | 0 | 0.0 | 0.0 | 0.00 | 0.00 | 0.00 | 40 | 1012.1 |
| 20260506090453 | 63 | 0 | 0.0 | 0.0 | 0.00 | 0.00 | 0.00 | 40 | 1011.8 |
| 20260506085452 | 64 | 0 | 0.0 | 0.0 | 0.00 | 0.00 | 0.00 | 40 | 1011.8 |
| 20260506084952 | 64 | 0 | 0.0 | 0.0 | 0.00 | 0.00 | 0.00 | 40 | 1012.1 |
| 20260506084451 | 64 | 0 | 0.0 | 0.0 | 0.00 | 0.00 | 0.00 | 40 | 1011.8 |
| 20260506083951 | 64 | 0 | 0.0 | 0.0 | 0.00 | 0.00 | 0.00 | 40 | 1011.8 |
| 20260506083723 | 64 | 0 | 0.0 | 0.0 | 0.00 | 0.00 | 0.00 | 39 | 1012.1 |
| 20260506082952 | 64 | 248 | 0.0 | 0.0 | 0.00 | 0.00 | 0.00 | 40 | 1011.8 |
| 20260506082452 | 64 | 248 | 0.0 | 0.0 | 0.00 | 0.00 | 0.00 | 40 | 1012.1 |
| 20260506081952 | 64 | 270 | 0.0 | 0.0 | 0.00 | 0.00 | 0.00 | 39 | 1011.8 |
| 20260506081730 | 64 | 270 | 0.0 | 0.0 | 0.00 | 0.00 | 0.00 | 40 | 1011.8 |
| 20260506081453 | 64 | 270 | 0.0 | 0.0 | 0.00 | 0.00 | 0.00 | 39 | 1011.8 |
| 20260506080451 | 65 | 270 | 0.0 | 0.0 | 0.00 | 0.00 | 0.00 | 39 | 1011.8 |
| 20260506073453 | 65 | 225 | 0.0 | 0.0 | 0.00 | 0.00 | 0.00 | 37 | 1011.8 |
| 20260506072952 | 65 | 90 | 0.0 | 0.0 | 0.00 | 0.00 | 0.00 | 37 | 1011.8 |
| 20260506072452 | 66 | 90 | 0.0 | 0.0 | 0.00 | 0.00 | 0.00 | 37 | 1011.8 |
| 20260506071951 | 66 | 90 | 0.0 | 0.0 | 0.00 | 0.00 | 0.00 | 37 | 1011.8 |
| 20260506071452 | 66 | 90 | 0.0 | 0.0 | 0.00 | 0.00 | 0.00 | 37 | 1011.5 |
| 20260506070951 | 66 | 23 | 0.0 | 0.0 | 0.00 | 0.00 | 0.00 | 37 | 1011.5 |
| 20260506070451 | 66 | 113 | 0.0 | 0.0 | 0.00 | 0.00 | 0.00 | 37 | 1011.5 |
| 20260506062451 | 68 | 180 | 0.0 | 0.0 | 0.00 | 0.00 | 0.00 | 35 | 1011.1 |
| 20260506061951 | 68 | 180 | 0.0 | 0.0 | 0.00 | 0.00 | 0.00 | 35 | 1011.1 |
| 20260506061451 | 68 | 135 | 0.0 | 0.0 | 0.00 | 0.00 | 0.00 | 34 | 1011.1 |
| 20260506061223 | 68 | 135 | 0.0 | 0.0 | 0.00 | 0.00 | 0.00 | 34 | 1011.1 |
| 20260506060452 | 68 | 135 | 0.0 | 0.0 | 0.00 | 0.00 | 0.00 | 34 | 1011.1 |
| 20260506050952 | 71 | 315 | 0.0 | 2.0 | 0.00 | 0.00 | 0.00 | 29 | 1011.1 |
| 20260506050452 | 71 | 270 | 0.0 | 2.0 | 0.00 | 0.00 | 0.00 | 29 | 1010.8 |
| 20260506044932 | 71 | 180 | 0.0 | 1.0 | 0.00 | 0.00 | 0.00 | 29 | 1010.8 |
| 20260506044432 | 71 | 180 | 0.0 | 1.0 | 0.00 | 0.00 | 0.00 | 29 | 1010.8 |
| 20260506043933 | 71 | 293 | 0.0 | 3.0 | 0.00 | 0.00 | 0.00 | 27 | 1010.8 |
| 20260506043434 | 71 | 225 | 0.0 | 3.0 | 0.00 | 0.00 | 0.00 | 27 | 1010.8 |
| 20260506042933 | 71 | 270 | 0.0 | 3.0 | 0.00 | 0.00 | 0.00 | 27 | 1010.5 |
| 20260506042433 | 72 | 225 | 0.0 | 4.0 | 0.00 | 0.00 | 0.00 | 27 | 1010.5 |
| 20260506041934 | 72 | 270 | 0.0 | 4.0 | 0.00 | 0.00 | 0.00 | 27 | 1010.5 |
| 20260506041434 | 72 | 225 | 1.0 | 3.0 | 0.00 | 0.00 | 0.00 | 27 | 1010.5 |
| 20260506040932 | 72 | 203 | 0.0 | 4.0 | 0.00 | 0.00 | 0.00 | 27 | 1010.5 |
| 20260506040703 | 72 | 270 | 1.0 | 4.0 | 0.00 | 0.00 | 0.00 | 27 | 1010.5 |
| 20260506035932 | 72 | 180 | 0.0 | 7.0 | 0.00 | 0.00 | 0.00 | 27 | 1010.0 |
| 20260506035432 | 72 | 248 | 1.0 | 7.0 | 0.00 | 0.00 | 0.00 | 27 | 1010.0 |
| 20260506034915 | 73 | 225 | 1.0 | 6.0 | 0.00 | 0.00 | 0.00 | 27 | 1010.0 |
| 20260506034415 | 73 | 270 | 1.0 | 6.0 | 0.00 | 0.00 | 0.00 | 27 | 1010.0 |
| 20260506033916 | 73 | 270 | 1.0 | 6.0 | 0.00 | 0.00 | 0.00 | 25 | 1010.0 |
| 20260506033416 | 73 | 270 | 1.0 | 6.0 | 0.00 | 0.00 | 0.00 | 25 | 1010.0 |
| 20260506033146 | 73 | 270 | 1.0 | 8.0 | 0.00 | 0.00 | 0.00 | 25 | 1010.0 |
| 20260506032413 | 73 | 0 | 1.0 | 8.0 | 0.00 | 0.00 | 0.00 | 25 | 1010.0 |
| 20260506031914 | 73 | 293 | 0.0 | 3.0 | 0.00 | 0.00 | 0.00 | 25 | 1009.7 |
| 20260506031414 | 73 | 293 | 1.0 | 7.0 | 0.00 | 0.00 | 0.00 | 25 | 1009.7 |
| 20260506030913 | 73 | 248 | 1.0 | 7.0 | 0.00 | 0.00 | 0.00 | 25 | 1009.3 |
| 20260506030415 | 73 | 248 | 1.0 | 6.0 | 0.00 | 0.00 | 0.00 | 25 | 1009.7 |
| 20260506030145 | 74 | 293 | 1.0 | 4.0 | 0.00 | 0.00 | 0.00 | 25 | 1009.3 |
| 20260506025415 | 74 | 270 | 1.0 | 4.0 | 0.00 | 0.00 | 0.00 | 25 | 1009.3 |
| 20260506024915 | 74 | 270 | 1.0 | 6.0 | 0.00 | 0.00 | 0.00 | 25 | 1009.3 |
| 20260506024415 | 74 | 248 | 1.0 | 6.0 | 0.00 | 0.00 | 0.00 | 25 | 1009.0 |
| 20260506023913 | 74 | 293 | 1.0 | 7.0 | 0.00 | 0.00 | 0.00 | 25 | 1009.0 |
| 20260506023415 | 74 | 248 | 2.0 | 7.0 | 0.00 | 0.00 | 0.00 | 25 | 1009.0 |
| 20260506022913 | 74 | 225 | 2.0 | 8.0 | 0.00 | 0.00 | 0.00 | 24 | 1009.0 |
| 20260506022413 | 74 | 270 | 2.0 | 8.0 | 0.00 | 0.00 | 0.00 | 24 | 1009.0 |
| 20260506021914 | 75 | 225 | 2.0 | 8.0 | 0.00 | 0.00 | 0.00 | 24 | 1008.7 |
| 20260506021414 | 75 | 225 | 1.0 | 7.0 | 0.00 | 0.00 | 0.00 | 24 | 1008.7 |
| 20260506020914 | 75 | 203 | 2.0 | 8.0 | 0.00 | 0.00 | 0.00 | 24 | 1008.7 |
| 20260506020414 | 75 | 270 | 1.0 | 8.0 | 0.00 | 0.00 | 0.00 | 24 | 1008.3 |
| 20260506015914 | 76 | 0 | 1.0 | 9.0 | 0.00 | 0.00 | 0.00 | 22 | 1008.3 |
| 20260506015413 | 76 | 180 | 2.0 | 9.0 | 0.00 | 0.00 | 0.00 | 22 | 1008.3 |
| 20260506014913 | 76 | 270 | 2.0 | 8.0 | 0.00 | 0.00 | 0.00 | 22 | 1008.0 |
| 20260506014412 | 76 | 270 | 1.0 | 6.0 | 0.00 | 0.00 | 0.00 | 22 | 1008.3 |
| 20260506013912 | 76 | 248 | 1.0 | 8.0 | 0.00 | 0.00 | 0.00 | 22 | 1008.3 |
| 20260506013414 | 77 | 293 | 2.0 | 9.0 | 0.00 | 0.00 | 0.00 | 22 | 1008.3 |
| 20260506013144 | 77 | 270 | 2.0 | 9.0 | 0.00 | 0.00 | 0.00 | 22 | 1008.3 |
| 20260506012413 | 77 | 248 | 2.0 | 8.0 | 0.00 | 0.00 | 0.00 | 22 | 1008.0 |
| 20260506011913 | 78 | 248 | 2.0 | 8.0 | 0.00 | 0.00 | 0.00 | 24 | 1008.3 |
| 20260506011414 | 78 | 248 | 2.0 | 8.0 | 0.00 | 0.00 | 0.00 | 22 | 1008.0 |
| 20260506010912 | 78 | 180 | 2.0 | 8.0 | 0.00 | 0.00 | 0.00 | 24 | 1008.0 |
| 20260506010412 | 78 | 113 | 1.0 | 8.0 | 0.00 | 0.00 | 0.00 | 24 | 1008.0 |